Torna al catalogo

FENGYUN 1C DEB

AttivoSSO
NORAD 30208·DEBRIS·🇨🇳 China

Lanciato May 10, 1999 da Taiyuan Satellite Launch Center

Loading…

Prossimi Passaggi (prossime 24 ore)

TLE

AggiornatoSource: Space-Track

Epoca: Sep 14, 2026, 22:58 UTC

1 30208U 99025VR  26257.95711501  .00000570  00000-0  26536-3 0  9996
2 30208  98.5711 256.8257 0033458 183.7115 205.5514 14.24049373 17591

Traccia FENGYUN 1C DEB in tempo reale con AllMySat

Download on the App Store